Time,TemperatureF,DewpointF,PressureIn,WindDirection,WindDirectionDegrees,WindSpeedMPH,WindSpeedGustMPH,Humidity,HourlyPrecipIn,Conditions,Clouds,dailyrainin,SoftwareType,DateUTC
2013-01-05 00:00:00,38.0,-54.6,30.03,NNW,337,0.0,0.0,1,0.00,,,0.00,Weather View 32 v70,2013-01-05 08:00:00,
2013-01-05 00:30:00,37.0,-55.2,30.03,NNW,337,0.0,0.0,1,0.00,,,0.00,Weather View 32 v70,2013-01-05 08:30:00,
2013-01-05 01:00:00,36.0,-55.8,30.02,NNW,337,0.0,0.0,1,0.00,,,0.00,Weather View 32 v70,2013-01-05 09:00:00,
2013-01-05 01:30:00,35.0,-56.4,30.01,NNW,337,0.0,0.0,1,0.00,,,0.00,Weather View 32 v70,2013-01-05 09:30:00,
2013-01-05 02:00:00,33.0,-57.7,30.01,SSE,157,0.0,0.0,1,0.00,,,0.00,Weather View 32 v70,2013-01-05 10:00:00,
2013-01-05 02:30:00,34.0,-57.1,30.01,SSE,157,0.0,0.0,1,0.00,,,0.00,Weather View 32 v70,2013-01-05 10:30:00,
2013-01-05 03:00:00,34.0,-57.1,30.01,SSE,157,0.0,0.0,1,0.00,,,0.00,Weather View 32 v70,2013-01-05 11:00:00,
2013-01-05 03:30:00,34.0,-57.1,30.01,SW,225,0.0,4.0,1,0.00,,,0.00,Weather View 32 v70,2013-01-05 11:30:00,
2013-01-05 04:00:00,34.0,-57.1,30.01,SW,225,0.0,4.0,1,0.00,,,0.00,Weather View 32 v70,2013-01-05 12:00:00,
2013-01-05 04:30:00,33.0,-57.7,30.01,SW,225,0.0,0.0,1,0.00,,,0.00,Weather View 32 v70,2013-01-05 12:30:00,
2013-01-05 05:00:00,33.0,-57.7,30.01,SW,225,0.0,0.0,1,0.00,,,0.00,Weather View 32 v70,2013-01-05 13:00:00,
2013-01-05 05:30:00,33.0,-57.7,30.02,SW,225,0.0,0.0,1,0.00,,,0.00,Weather View 32 v70,2013-01-05 13:30:00,
2013-01-05 06:00:00,32.0,-58.3,30.01,SE,135,0.0,0.0,1,0.00,,,0.00,Weather View 32 v70,2013-01-05 14:00:00,
2013-01-05 06:30:00,33.0,-57.7,30.01,SE,135,0.0,0.0,1,0.00,,,0.00,Weather View 32 v70,2013-01-05 14:30:00,
2013-01-05 07:00:00,33.0,-57.7,30.01,SE,135,0.0,0.0,1,0.00,,,0.00,Weather View 32 v70,2013-01-05 15:00:00,
2013-01-05 07:30:00,32.0,-58.3,30.00,SE,135,0.0,0.0,1,0.00,,,0.00,Weather View 32 v70,2013-01-05 15:30:00,
2013-01-05 08:00:00,34.0,-57.1,30.02,SW,225,0.0,6.0,1,0.00,,,0.00,Weather View 32 v70,2013-01-05 16:00:00,
2013-01-05 08:30:00,39.0,-54.0,30.06,SW,225,0.0,6.0,1,0.00,,,0.00,Weather View 32 v70,2013-01-05 16:30:00,
2013-01-05 09:00:00,44.0,-50.9,30.10,SW,225,0.0,0.0,1,0.00,,,0.00,Weather View 32 v70,2013-01-05 17:00:00,
2013-01-05 09:30:00,47.0,-49.0,30.12,NW,315,0.0,0.0,1,0.00,,,0.00,Weather View 32 v70,2013-01-05 17:30:00,
2013-01-05 10:00:00,48.0,-48.4,30.13,ENE,67,0.0,2.0,1,0.00,,,0.00,Weather View 32 v70,2013-01-05 18:00:00,
2013-01-05 10:30:00,53.0,-45.3,30.14,ENE,67,0.0,2.0,1,0.00,,,0.00,Weather View 32 v70,2013-01-05 18:30:00,
2013-01-05 11:00:00,56.0,13.0,30.12,ESE,112,0.0,0.0,18,0.00,,,0.00,Weather View 32 v70,2013-01-05 19:00:00,
2013-01-05 11:30:00,58.0,49.0,30.12,SW,225,0.0,0.0,72,0.00,,,0.00,Weather View 32 v70,2013-01-05 19:30:00,
2013-01-05 12:00:00,61.0,51.9,30.11,WSW,247,0.0,0.0,72,0.00,,,0.00,Weather View 32 v70,2013-01-05 20:00:00,
2013-01-05 12:30:00,61.0,48.7,30.09,NW,315,0.0,0.0,64,0.00,,,0.00,Weather View 32 v70,2013-01-05 20:30:00,
2013-01-05 13:00:00,63.0,50.6,30.09,WSW,247,0.0,0.0,64,0.00,,,0.00,Weather View 32 v70,2013-01-05 21:00:00,
2013-01-05 13:30:00,62.0,42.6,30.08,ESE,112,0.0,0.0,49,0.00,,,0.00,Weather View 32 v70,2013-01-05 21:30:00,
2013-01-05 13:35:00,62.0,42.6,30.08,ESE,112,0.0,0.0,49,0.00,,,0.00,Weather View 32 v70,2013-01-05 21:35:00,
2013-01-05 14:00:00,62.0,44.6,30.07,South,180,0.0,0.0,53,0.00,,,0.00,Weather View 32 v70,2013-01-05 22:00:00,
2013-01-05 14:30:00,62.0,41.5,30.07,SW,225,0.0,0.0,47,0.00,,,0.00,Weather View 32 v70,2013-01-05 22:30:00,
2013-01-05 14:36:00,62.0,41.5,30.07,SW,225,0.0,0.0,47,0.00,,,0.00,Weather View 32 v70,2013-01-05 22:36:00,
2013-01-05 15:00:00,61.0,38.3,30.06,ENE,67,0.0,0.0,43,0.00,,,0.00,Weather View 32 v70,2013-01-05 23:00:00,
2013-01-05 15:30:00,62.0,39.8,30.05,SSW,202,0.0,0.0,44,0.00,,,0.00,Weather View 32 v70,2013-01-05 23:30:00,
2013-01-05 15:36:00,62.0,39.8,30.05,SSW,202,0.0,0.0,44,0.00,,,0.00,Weather View 32 v70,2013-01-05 23:36:00,
2013-01-05 16:00:00,60.0,40.7,30.03,SE,135,0.0,0.0,49,0.00,,,0.00,Weather View 32 v70,2013-01-06 00:00:00,
2013-01-05 16:30:00,58.0,40.9,30.02,SE,135,0.0,0.0,53,0.00,,,0.00,Weather View 32 v70,2013-01-06 00:30:00,
2013-01-05 16:37:00,58.0,40.9,30.02,SE,135,0.0,0.0,53,0.00,,,0.00,Weather View 32 v70,2013-01-06 00:37:00,
2013-01-05 17:00:00,55.0,40.5,30.00,SE,135,0.0,0.0,58,0.00,,,0.00,Weather View 32 v70,2013-01-06 01:00:00,
2013-01-05 17:30:00,54.0,40.8,30.00,SSW,202,0.0,0.0,61,0.00,,,0.00,Weather View 32 v70,2013-01-06 01:30:00,
2013-01-05 17:37:00,54.0,40.8,30.00,SSW,202,0.0,0.0,61,0.00,,,0.00,Weather View 32 v70,2013-01-06 01:37:00,
2013-01-05 18:00:00,51.0,45.0,29.99,ENE,67,0.0,0.0,80,0.00,,,0.00,Weather View 32 v70,2013-01-06 02:00:00,
2013-01-05 18:30:00,49.0,43.7,29.97,ENE,67,0.0,0.0,82,0.00,,,0.00,Weather View 32 v70,2013-01-06 02:30:00,
2013-01-05 18:38:00,49.0,43.7,29.97,ENE,67,0.0,0.0,82,0.00,,,0.00,Weather View 32 v70,2013-01-06 02:38:00,
2013-01-05 19:00:00,49.0,44.1,29.96,ESE,112,0.0,0.0,83,0.00,,,0.00,Weather View 32 v70,2013-01-06 03:00:00,
2013-01-05 19:30:00,48.0,43.1,29.94,ESE,112,0.0,0.0,83,0.00,,,0.00,Weather View 32 v70,2013-01-06 03:30:00,
2013-01-05 19:38:00,48.0,43.1,29.94,ESE,112,0.0,0.0,83,0.00,,,0.00,Weather View 32 v70,2013-01-06 03:38:00,
2013-01-05 20:00:00,48.0,43.1,29.94,ENE,67,0.0,3.0,83,0.00,,,0.00,Weather View 32 v70,2013-01-06 04:00:00,
2013-01-05 20:30:00,48.0,42.8,29.94,SW,225,0.0,6.0,82,0.00,,,0.00,Weather View 32 v70,2013-01-06 04:30:00,
2013-01-05 20:39:00,48.0,42.8,29.94,SW,225,0.0,6.0,82,0.00,,,0.00,Weather View 32 v70,2013-01-06 04:39:00,
2013-01-05 21:00:00,48.0,43.1,29.93,ESE,112,0.0,6.0,83,0.00,,,0.00,Weather View 32 v70,2013-01-06 05:00:00,
2013-01-05 21:30:00,47.0,41.1,29.91,ESE,112,1.0,5.0,80,0.00,,,0.00,Weather View 32 v70,2013-01-06 05:30:00,
2013-01-05 21:39:00,47.0,41.1,29.91,ESE,112,1.0,5.0,80,0.00,,,0.00,Weather View 32 v70,2013-01-06 05:39:00,
2013-01-05 22:00:00,46.0,39.8,29.91,ESE,112,0.0,7.0,79,0.00,,,0.00,Weather View 32 v70,2013-01-06 06:00:00,
2013-01-05 22:30:00,46.0,33.7,29.92,SW,225,2.0,9.0,62,0.00,,,0.00,Weather View 32 v70,2013-01-06 06:30:00,
2013-01-05 23:00:00,46.0,28.4,29.93,SSW,202,0.0,9.0,50,0.00,,,0.00,Weather View 32 v70,2013-01-06 07:00:00,
2013-01-05 23:30:00,49.0,41.8,29.94,SW,225,1.0,14.0,76,0.00,,,0.00,Weather View 32 v70,2013-01-06 07:30:00,